Home   Weather   Langfang   Past weeks
Flag for China

Past Weather in Langfang, Hebei, China — Yesterday and Last 2 Weeks

Now
82 °F

Sunny.


Feels Like: 84 °F
Forecast: 84 / 74 °F
Wind: 8 mph from North

Location: Beijing Airport

Current Time: Jul 16, 2019 at 7:34:07 pm

Latest Report: Jul 16, 2019 at 6:30 pm


Visibility: 10 mi

Pressure: 29.74 "Hg

Humidity: 55%

Dew Point: 64 °F

Location of LangfangLocation

Past Weather in Langfang — Graph

°F

Langfang Temperature Yesterday

Maximum temperature yesterday: 93 °F (at 2:30 pm)
Minimum temperature yesterday: 72 °F (at 3:30 am)
Average temperature yesterday: 83 °F

High & Low Weather Summary for the Past Weeks

 TemperatureHumidityPressure
High104 °F (Jul 4, 2:30 pm)100% (Jul 5, 11:30 pm)29.89 "Hg (Jul 5, 11:30 pm)
Low66 °F (Jul 3, 3:00 am)18% (Jul 1, 6:30 pm)29.36 "Hg (Jul 5, 1:30 pm)
Average80 °F63%29.66 "Hg
* Reported Jul 1 6:00 pm — Jul 16 6:00 pm, Langfang. Weather by CustomWeather, © 2019

Note: Actual official high and low records may vary slightly from our data, if they occured in-between our weather recording intervals... More about our weather records

Advertising

Langfang Weather History for the Previous 24 Hours

Scroll right to see more
 ConditionsComfort  
Time TempWeatherWind HumidityBarometerVisibility
6:00 pm
Tue, Jul 16
82 °FPassing clouds.6 mph55%29.74 "HgN/A
5:30 pm82 °FSunny.10 mph58%29.74 "Hg10 mi
5:00 pm84 °FPassing clouds.15 mph51%29.74 "HgN/A
4:30 pm88 °FScattered clouds.15 mph46%29.74 "HgN/A
4:00 pm91 °FPassing clouds.8 mph46%29.71 "HgN/A
3:30 pm90 °FPassing clouds.6 mph52%29.71 "HgN/A
3:00 pm90 °FPassing clouds.6 mph52%29.71 "HgN/A
2:30 pm90 °FPassing clouds.6 mph52%29.74 "HgN/A
2:00 pm90 °FPassing clouds.3 mph52%29.74 "HgN/A
1:30 pm90 °FSunny.6 mph52%29.74 "Hg10 mi
1:00 pm88 °FSunny.6 mph55%29.74 "Hg10 mi
12:30 pm88 °FPassing clouds.6 mph52%29.77 "HgN/A
12:00 pm88 °FPassing clouds.6 mph52%29.77 "HgN/A
11:30 am86 °FClear.3 mph59%29.77 "Hg5 mi
11:00 am86 °FClear.3 mph59%29.77 "Hg5 mi
10:30 am84 °FClear.1 mph62%29.80 "Hg5 mi
10:00 am82 °FClear.3 mph66%29.77 "Hg5 mi
9:30 am82 °FClear.3 mph66%29.77 "Hg5 mi
9:00 am81 °FClear.3 mph70%29.77 "Hg5 mi
8:30 am82 °FClear.3 mph70%29.77 "Hg5 mi
8:00 am81 °FClear.3 mph70%29.77 "Hg5 mi
7:30 am79 °FClear.3 mph74%29.77 "Hg5 mi
7:00 am79 °FClear.6 mph74%29.77 "Hg5 mi
6:30 am79 °FClear.3 mph79%29.77 "Hg4 mi
6:00 am77 °FClear.6 mph79%29.77 "Hg4 mi
5:30 am77 °FClear.6 mph79%29.77 "Hg4 mi
5:00 am77 °FClear.6 mph79%29.74 "Hg5 mi
4:30 am77 °FPassing clouds.6 mph79%29.74 "HgN/A
4:00 am77 °FClear.3 mph79%29.74 "Hg10 mi
3:30 am77 °FClear.3 mph74%29.74 "Hg10 mi
3:00 am75 °FClear.1 mph83%29.71 "Hg10 mi
2:30 am77 °FClear.1 mph74%29.71 "Hg10 mi
2:00 am79 °FPassing clouds.3 mph74%29.71 "HgN/A
1:30 am79 °FPassing clouds.3 mph74%29.74 "HgN/A
1:00 am81 °FClear.3 mph70%29.74 "Hg10 mi
12:30 am81 °FClear.1 mph70%29.74 "Hg10 mi
12:00 am81 °FClear.3 mph70%29.74 "Hg10 mi
11:30 pm
Mon, Jul 15
82 °FClear.3 mph66%29.74 "Hg10 mi
11:00 pm82 °FPassing clouds.6 mph66%29.71 "HgN/A
10:30 pm84 °FPassing clouds.6 mph62%29.71 "HgN/A
10:00 pm84 °FClear.6 mph62%29.71 "Hg10 mi
9:30 pm86 °FPassing clouds.8 mph62%29.71 "HgN/A
9:00 pm86 °FPassing clouds.8 mph59%29.68 "HgN/A
8:30 pm88 °FClear.3 mph55%29.68 "Hg10 mi
7:30 pm88 °FSunny.6 mph55%29.65 "Hg10 mi
7:00 pm90 °FSunny.6 mph52%29.65 "Hg10 mi
Weather by CustomWeather, © 2019

See weather overview

LIVE PARTIAL LUNAR ECLIPSE – Watch the eclipse as it happens